Location: Krakow
(50.0212°N, 19.9423°E)
Time: 23:32:28
(UTC+02:00)

NOAA 18 - Pass Details

Date: 20 August 2024
Orbit: 837 x 859 km, 98.9° (Epoch: 19 September)

Event Time Altitude Azimuth Distance (km) Brightness Sun altitude
Exits shadow 20:49:49 - 95° (E) 2,610 7.2 -9.7°
Reaches altitude 10° 20:50:15 10° 92° (E) 2,498 7.1 -9.8°
Maximum altitude 20:53:44 17° 52° (NE) 2,029 7.0 -10.2°
Drops below altitude 10° 20:57:13 10° 13° (NNE) 2,506 7.9 -10.7°
Sets 21:00:22 0° 355° (N) 3,446 9.0 -11.1°
